AFR7315 LDSP-LGKR

Flight info

Callsign AFR7315
Flight time 0h 58m
Altitude 35000
Route ORAKA DCT VAKSU DCT RODON DCT LIMJA N732 PITAS
Aircraft A320/M-DE3FGHILORWXY/LB1

Departure

Time 2026-05-05 16:22
Airport Split Saint Jerome Airport (LDSP)

Arrival

Time 2026-05-05 17:21
Airport Corfu Ioannis Kapodistrias International Airport (LGKR)
Time Latitude Longitude Altitude Speed Heading
2026-05-05 15:25 43.53729 16.29873 68 ft 0 kts 115°
2026-05-05 15:49 43.53729 16.29872 95 ft 0 kts 115°
2026-05-05 16:14 43.53729 16.29873 68 ft 0 kts 115°
2026-05-05 16:15 43.53748 16.29871 63 ft 3 kts 282°
2026-05-05 16:15 43.53747 16.29775 61 ft 6 kts 248°
2026-05-05 16:16 43.53710 16.29705 68 ft 3 kts 232°
2026-05-05 16:16 43.53673 16.29637 64 ft 0 kts 239°
2026-05-05 16:17 43.53673 16.29636 64 ft 0 kts 239°
2026-05-05 16:17 43.53671 16.29629 64 ft 3 kts 245°
2026-05-05 16:18 43.53699 16.29538 73 ft 7 kts 287°
2026-05-05 16:18 43.53691 16.29438 80 ft 15 kts 246°
2026-05-05 16:18 43.53548 16.29172 81 ft 17 kts 232°
2026-05-05 16:19 43.53481 16.29050 81 ft 15 kts 233°
2026-05-05 16:19 43.53422 16.28942 83 ft 14 kts 233°
2026-05-05 16:19 43.53323 16.28763 82 ft 10 kts 232°
2026-05-05 16:20 43.53205 16.28587 76 ft 6 kts 317°
2026-05-05 16:20 43.53248 16.28629 70 ft 1 kts 51°
2026-05-05 16:21 43.53301 16.28723 83 ft 22 kts 52°
2026-05-05 16:22 43.54732 16.31322 588 ft 155 kts 56°
2026-05-05 16:22 43.55676 16.33913 1928 ft 155 kts 94°
2026-05-05 16:23 43.54497 16.36549 2806 ft 183 kts 155°
2026-05-05 16:23 43.53247 16.36924 3433 ft 185 kts 172°
2026-05-05 16:23 43.50857 16.38247 4688 ft 188 kts 154°
2026-05-05 16:24 43.49688 16.39086 5283 ft 191 kts 154°
2026-05-05 16:24 43.48490 16.39952 5514 ft 196 kts 154°
2026-05-05 16:24 43.45975 16.40836 5507 ft 192 kts 195°
2026-05-05 16:25 43.44809 16.39853 5789 ft 201 kts 228°
2026-05-05 16:25 43.43132 16.36853 7086 ft 199 kts 232°
2026-05-05 16:25 43.42278 16.35326 7482 ft 204 kts 232°
2026-05-05 16:26 43.39855 16.33925 7515 ft 214 kts 162°
2026-05-05 16:26 43.37081 16.36479 8010 ft 266 kts 144°
2026-05-05 16:27 43.35545 16.38058 8507 ft 282 kts 144°
2026-05-05 16:27 43.33959 16.39695 9249 ft 289 kts 145°
2026-05-05 16:27 43.32337 16.41367 10054 ft 294 kts 145°
2026-05-05 16:27 43.30644 16.43101 10401 ft 315 kts 145°
2026-05-05 16:28 43.28817 16.44957 10702 ft 335 kts 144°
2026-05-05 16:28 43.26917 16.46884 11334 ft 343 kts 145°
2026-05-05 16:28 43.24988 16.48839 12057 ft 347 kts 145°
2026-05-05 16:28 43.23034 16.50823 12780 ft 351 kts 145°
2026-05-05 16:29 43.21062 16.52830 13505 ft 355 kts 145°
2026-05-05 16:29 43.19067 16.54856 14188 ft 359 kts 145°
2026-05-05 16:29 43.17046 16.56903 14811 ft 363 kts 145°
2026-05-05 16:29 43.15005 16.58964 15445 ft 367 kts 145°
2026-05-05 16:30 43.12937 16.61047 16084 ft 370 kts 145°
2026-05-05 16:30 43.10852 16.63143 16705 ft 374 kts 145°
2026-05-05 16:30 43.08746 16.65259 17313 ft 378 kts 145°
2026-05-05 16:30 43.06617 16.67395 17917 ft 381 kts 145°
2026-05-05 16:31 43.04466 16.69555 18492 ft 385 kts 145°
2026-05-05 16:31 43.02297 16.71733 19015 ft 389 kts 145°
2026-05-05 16:31 43.00109 16.73929 19545 ft 392 kts 145°
2026-05-05 16:31 42.97896 16.76147 20070 ft 396 kts 145°
2026-05-05 16:32 42.95669 16.78377 20604 ft 399 kts 144°
2026-05-05 16:32 42.93417 16.80631 21141 ft 403 kts 144°
2026-05-05 16:32 42.91148 16.82901 21666 ft 406 kts 144°
2026-05-05 16:32 42.88857 16.85193 22190 ft 410 kts 144°
2026-05-05 16:33 42.86549 16.87498 22705 ft 413 kts 144°
2026-05-05 16:33 42.84220 16.89818 23210 ft 416 kts 144°
2026-05-05 16:33 42.81901 16.92129 23680 ft 420 kts 144°
2026-05-05 16:33 42.79531 16.94489 24078 ft 423 kts 144°
2026-05-05 16:34 42.77147 16.96865 24457 ft 427 kts 144°
2026-05-05 16:34 42.74742 16.99255 24829 ft 430 kts 144°
2026-05-05 16:34 42.72312 17.01667 25196 ft 433 kts 144°
2026-05-05 16:34 42.69864 17.04096 25552 ft 437 kts 145°
2026-05-05 16:35 42.67403 17.06531 25902 ft 440 kts 145°
2026-05-05 16:35 42.64921 17.08983 26251 ft 443 kts 145°
2026-05-05 16:35 42.62419 17.11452 26595 ft 446 kts 145°
2026-05-05 16:35 42.59901 17.13935 26930 ft 449 kts 145°
2026-05-05 16:36 42.57366 17.16438 27257 ft 452 kts 144°
2026-05-05 16:36 42.54985 17.19259 27581 ft 457 kts 135°
2026-05-05 16:36 42.52939 17.22560 27901 ft 460 kts 125°
2026-05-05 16:36 42.51282 17.26284 28209 ft 463 kts 117°
2026-05-05 16:37 42.49794 17.30179 28507 ft 466 kts 117°
2026-05-05 16:37 42.48289 17.34088 28802 ft 469 kts 117°
2026-05-05 16:37 42.46767 17.38020 29101 ft 472 kts 117°
2026-05-05 16:37 42.45237 17.41963 29388 ft 475 kts 117°
2026-05-05 16:38 42.43691 17.45930 29673 ft 478 kts 117°
2026-05-05 16:38 42.42133 17.49923 29945 ft 481 kts 117°
2026-05-05 16:38 42.40568 17.53936 30198 ft 483 kts 117°
2026-05-05 16:38 42.38994 17.57964 30433 ft 486 kts 117°
2026-05-05 16:39 42.37415 17.62004 30668 ft 487 kts 117°
2026-05-05 16:39 42.35828 17.66066 30909 ft 489 kts 117°
2026-05-05 16:39 42.34237 17.70135 31129 ft 490 kts 117°
2026-05-05 16:39 42.32637 17.74223 31390 ft 491 kts 117°
2026-05-05 16:40 42.31064 17.78233 31721 ft 490 kts 117°
2026-05-05 16:40 42.29467 17.82290 32038 ft 489 kts 117°
2026-05-05 16:40 42.27867 17.86343 32354 ft 488 kts 117°
2026-05-05 16:40 42.26271 17.90386 32667 ft 488 kts 117°
2026-05-05 16:41 42.24679 17.94424 32975 ft 487 kts 117°
2026-05-05 16:41 42.23087 17.98452 33281 ft 487 kts 117°
2026-05-05 16:41 42.21496 18.02481 33575 ft 486 kts 117°
2026-05-05 16:41 42.19904 18.06502 33876 ft 486 kts 117°
2026-05-05 16:42 42.18306 18.10521 34164 ft 486 kts 117°
2026-05-05 16:42 42.16705 18.14536 34438 ft 486 kts 117°
2026-05-05 16:42 42.15108 18.18538 34691 ft 485 kts 117°
2026-05-05 16:42 42.13511 18.22544 34954 ft 485 kts 117°
2026-05-05 16:43 42.11913 18.26544 35057 ft 483 kts 117°
2026-05-05 16:43 42.10326 18.30507 35079 ft 479 kts 117°
2026-05-05 16:43 42.07173 18.38367 35078 ft 477 kts 117°
2026-05-05 16:44 42.04020 18.46217 35079 ft 477 kts 117°
2026-05-05 16:44 42.00218 18.53502 35081 ft 478 kts 134°
2026-05-05 16:45 41.95122 18.59242 35079 ft 478 kts 143°
2026-05-05 16:45 41.89849 18.64704 35071 ft 478 kts 143°
2026-05-05 16:46 41.84584 18.70168 35065 ft 479 kts 143°
2026-05-05 16:46 41.79351 18.75593 35063 ft 479 kts 143°
2026-05-05 16:47 41.74075 18.81050 35067 ft 479 kts 143°
2026-05-05 16:47 41.68788 18.86494 35064 ft 480 kts 143°
2026-05-05 16:48 41.63494 18.91921 35068 ft 480 kts 143°
2026-05-05 16:48 41.58194 18.97358 35065 ft 480 kts 143°
2026-05-05 16:49 41.52903 19.02786 35075 ft 480 kts 143°
2026-05-05 16:49 41.47579 19.08166 35064 ft 480 kts 147°
2026-05-05 16:50 41.41623 19.12071 35074 ft 477 kts 162°
2026-05-05 16:50 41.35384 19.15113 35069 ft 478 kts 162°
2026-05-05 16:51 41.29142 19.18165 35075 ft 478 kts 162°
2026-05-05 16:51 41.22894 19.21204 35071 ft 479 kts 162°
2026-05-05 16:52 41.16632 19.24234 35074 ft 479 kts 162°
2026-05-05 16:52 41.10367 19.27267 35069 ft 480 kts 161°
2026-05-05 16:53 41.05153 19.29804 35073 ft 480 kts 161°
2026-05-05 16:53 40.97863 19.33337 35080 ft 480 kts 161°
2026-05-05 16:54 40.91579 19.36360 35081 ft 481 kts 161°
2026-05-05 16:54 40.85290 19.39381 35074 ft 481 kts 161°
2026-05-05 16:55 40.78996 19.42401 34958 ft 482 kts 161°
2026-05-05 16:55 40.75835 19.43918 34106 ft 483 kts 161°
2026-05-05 16:55 40.72690 19.45432 33497 ft 480 kts 161°
2026-05-05 16:56 40.70615 19.46428 33099 ft 478 kts 161°
2026-05-05 16:56 40.67497 19.47922 32498 ft 476 kts 161°
2026-05-05 16:56 40.64389 19.49405 31898 ft 474 kts 162°
2026-05-05 16:56 40.61285 19.50884 31311 ft 473 kts 161°
2026-05-05 16:57 40.58197 19.52358 30764 ft 470 kts 161°
2026-05-05 16:57 40.55130 19.53820 30249 ft 468 kts 161°
2026-05-05 16:57 40.52072 19.55270 29666 ft 465 kts 161°
2026-05-05 16:57 40.49036 19.56703 29153 ft 460 kts 161°
2026-05-05 16:58 40.46036 19.58118 28655 ft 456 kts 161°
2026-05-05 16:58 40.43060 19.59516 28153 ft 452 kts 163°
2026-05-05 16:58 40.40060 19.60297 27820 ft 439 kts 181°
2026-05-05 16:58 40.37030 19.60288 27403 ft 433 kts 185°
2026-05-05 16:59 40.34030 19.60173 26963 ft 430 kts 185°
2026-05-05 16:59 40.31045 19.60044 26542 ft 427 kts 185°
2026-05-05 16:59 40.28090 19.59909 26121 ft 424 kts 185°
2026-05-05 16:59 40.25154 19.59764 25701 ft 421 kts 185°
2026-05-05 17:00 40.22236 19.59614 25300 ft 418 kts 185°
2026-05-05 17:00 40.19341 19.59458 24900 ft 415 kts 185°
2026-05-05 17:00 40.16462 19.59304 24495 ft 412 kts 185°
2026-05-05 17:00 40.13603 19.59140 24072 ft 410 kts 185°
2026-05-05 17:01 40.10768 19.58969 23658 ft 407 kts 185°
2026-05-05 17:01 40.07944 19.58791 23182 ft 404 kts 185°
2026-05-05 17:01 40.05146 19.58611 22729 ft 401 kts 185°
2026-05-05 17:01 40.02367 19.58430 22291 ft 398 kts 185°
2026-05-05 17:02 39.99608 19.58247 21824 ft 397 kts 185°
2026-05-05 17:02 39.96871 19.58063 21311 ft 396 kts 185°
2026-05-05 17:02 39.94120 19.57875 20804 ft 396 kts 185°
2026-05-05 17:02 39.91372 19.57685 20313 ft 395 kts 185°
2026-05-05 17:03 39.88667 19.57497 19824 ft 395 kts 185°
2026-05-05 17:03 39.85928 19.57306 19336 ft 394 kts 185°
2026-05-05 17:03 39.83193 19.57114 18866 ft 393 kts 185°
2026-05-05 17:03 39.80464 19.56919 18397 ft 392 kts 185°
2026-05-05 17:04 39.77747 19.56723 17863 ft 391 kts 185°
2026-05-05 17:04 39.75035 19.56526 17337 ft 390 kts 185°
2026-05-05 17:04 39.72375 19.55977 16807 ft 385 kts 202°
2026-05-05 17:04 39.70050 19.54375 16300 ft 376 kts 221°
2026-05-05 17:05 39.68055 19.52217 15801 ft 373 kts 225°
2026-05-05 17:05 39.66105 19.50007 15307 ft 372 kts 225°
2026-05-05 17:05 39.64166 19.47794 14822 ft 371 kts 225°
2026-05-05 17:05 39.62239 19.45583 14345 ft 369 kts 225°
2026-05-05 17:06 39.60324 19.43377 13867 ft 368 kts 225°
2026-05-05 17:06 39.58415 19.41168 13332 ft 366 kts 225°
2026-05-05 17:06 39.56525 19.38966 12809 ft 364 kts 225°
2026-05-05 17:06 39.54651 19.36771 12297 ft 362 kts 225°
2026-05-05 17:07 39.52791 19.34586 11788 ft 360 kts 224°
2026-05-05 17:07 39.50696 19.32826 11285 ft 361 kts 203°
2026-05-05 17:07 39.48257 19.32149 10795 ft 360 kts 181°
2026-05-05 17:07 39.45805 19.32655 10311 ft 356 kts 159°
2026-05-05 17:08 39.43529 19.33867 9839 ft 353 kts 155°
2026-05-05 17:08 39.41322 19.35126 9294 ft 339 kts 155°
2026-05-05 17:08 39.39212 19.36340 8777 ft 324 kts 155°
2026-05-05 17:08 39.37228 19.37588 8271 ft 310 kts 144°
2026-05-05 17:09 39.35761 19.39503 7768 ft 295 kts 118°
2026-05-05 17:09 39.35063 19.41911 7280 ft 282 kts 98°
2026-05-05 17:09 39.34935 19.44403 6801 ft 276 kts 85°
2026-05-05 17:09 39.35226 19.46831 6304 ft 273 kts 75°
2026-05-05 17:10 39.35643 19.49221 5792 ft 272 kts 76°
2026-05-05 17:10 39.36047 19.51606 5294 ft 273 kts 76°
2026-05-05 17:10 39.36451 19.54010 4796 ft 275 kts 76°
2026-05-05 17:10 39.36857 19.56425 4277 ft 276 kts 76°
2026-05-05 17:11 39.37260 19.58825 4024 ft 267 kts 76°
2026-05-05 17:11 39.37642 19.61092 4006 ft 249 kts 76°
2026-05-05 17:11 39.37990 19.63164 4004 ft 223 kts 76°
2026-05-05 17:11 39.38299 19.65005 4008 ft 203 kts 76°
2026-05-05 17:12 39.38594 19.66744 4015 ft 195 kts 76°
2026-05-05 17:12 39.38886 19.68452 4003 ft 194 kts 76°
2026-05-05 17:12 39.39177 19.70156 4017 ft 194 kts 76°
2026-05-05 17:12 39.39468 19.71858 4019 ft 194 kts 76°
2026-05-05 17:13 39.39705 19.73575 4004 ft 194 kts 84°
2026-05-05 17:13 39.39750 19.75321 4010 ft 194 kts 88°
2026-05-05 17:13 39.39774 19.77066 4014 ft 194 kts 88°
2026-05-05 17:13 39.39799 19.78808 3975 ft 193 kts 88°
2026-05-05 17:14 39.39824 19.80563 3591 ft 199 kts 88°
2026-05-05 17:14 39.39847 19.82366 3298 ft 201 kts 88°
2026-05-05 17:14 39.39870 19.84174 3023 ft 201 kts 88°
2026-05-05 17:14 39.39896 19.85977 2910 ft 201 kts 88°
2026-05-05 17:15 39.40005 19.87772 2913 ft 201 kts 78°
2026-05-05 17:15 39.40380 19.89514 2916 ft 201 kts 72°
2026-05-05 17:15 39.40777 19.91249 2914 ft 201 kts 73°
2026-05-05 17:15 39.41169 19.92985 2919 ft 201 kts 73°
2026-05-05 17:16 39.41554 19.94698 2932 ft 196 kts 72°
2026-05-05 17:16 39.42064 19.96209 2879 ft 178 kts 49°
2026-05-05 17:16 39.43047 19.97080 2743 ft 165 kts 14°
2026-05-05 17:16 39.44129 19.97122 2614 ft 154 kts 343°
2026-05-05 17:17 39.45131 19.96743 2465 ft 147 kts 342°
2026-05-05 17:17 39.46103 19.96376 2243 ft 145 kts 341°
2026-05-05 17:17 39.47069 19.96016 1996 ft 145 kts 342°
2026-05-05 17:17 39.48035 19.95656 1796 ft 143 kts 341°
2026-05-05 17:18 39.48996 19.95299 1726 ft 144 kts 342°
2026-05-05 17:18 39.49958 19.94940 1714 ft 145 kts 341°
2026-05-05 17:18 39.50926 19.94577 1710 ft 144 kts 341°
2026-05-05 17:18 39.51908 19.94208 1532 ft 149 kts 341°
2026-05-05 17:19 39.52891 19.93840 1326 ft 146 kts 341°
2026-05-05 17:19 39.53863 19.93479 1109 ft 143 kts 342°
2026-05-05 17:19 39.54808 19.93124 936 ft 141 kts 341°
2026-05-05 17:19 39.55736 19.92772 748 ft 141 kts 341°
2026-05-05 17:20 39.56681 19.92414 573 ft 142 kts 342°
2026-05-05 17:20 39.57614 19.92007 417 ft 142 kts 338°
2026-05-05 17:20 39.58559 19.91640 208 ft 143 kts 346°
2026-05-05 17:20 39.59528 19.91386 28 ft 140 kts 347°
2026-05-05 17:21 39.60336 19.91173 21 ft 82 kts 348°
2026-05-05 17:21 39.60757 19.91065 20 ft 43 kts 348°
2026-05-05 17:21 39.60991 19.91013 21 ft 20 kts 356°
2026-05-05 17:22 39.61058 19.91096 22 ft 0 kts 63°
2026-05-05 17:23 39.61059 19.91110 22 ft 4 kts 90°
2026-05-05 17:23 39.61022 19.91134 22 ft 9 kts 170°
2026-05-05 17:23 39.60944 19.91153 21 ft 13 kts 168°
2026-05-05 17:23 39.60850 19.91178 21 ft 14 kts 168°
2026-05-05 17:24 39.60768 19.91199 20 ft 8 kts 169°
2026-05-05 17:24 39.60746 19.91246 20 ft 6 kts 85°
2026-05-05 17:24 39.60754 19.91292 23 ft 5 kts 78°
2026-05-05 17:24 39.60760 19.91329 21 ft 4 kts 79°
2026-05-05 17:25 39.60762 19.91340 21 ft 0 kts 79°